Time,TemperatureF,DewpointF,PressureIn,WindDirection,WindDirectionDegrees,WindSpeedMPH,WindSpeedGustMPH,Humidity,HourlyPrecipIn,Conditions,Clouds,dailyrainin,SoftwareType,DateUTC
2013-01-25 00:00:00,20.4,7.2,28.16,ESE,113,3.0,-999.0,56,0.00,,,0.00,Wunderground v.1.15,2013-01-25 06:00:00,
2013-01-25 00:05:00,20.4,7.2,28.16,ESE,113,3.0,-999.0,56,0.00,,,0.00,Wunderground v.1.15,2013-01-25 06:05:00,
2013-01-25 00:10:00,20.4,7.2,28.16,ESE,113,3.0,-999.0,56,0.00,,,0.00,Wunderground v.1.15,2013-01-25 06:10:00,
2013-01-25 00:15:00,20.4,7.2,28.16,ESE,113,3.0,-999.0,56,0.00,,,0.00,Wunderground v.1.15,2013-01-25 06:15:00,
2013-01-25 00:20:00,20.4,7.2,28.16,ESE,113,3.0,-999.0,56,0.00,,,0.00,Wunderground v.1.15,2013-01-25 06:20:00,
2013-01-25 00:25:00,20.4,7.2,28.16,ESE,113,3.0,-999.0,56,0.00,,,0.00,Wunderground v.1.15,2013-01-25 06:25:00,
2013-01-25 00:30:00,20.4,7.2,28.16,ESE,113,3.0,-999.0,56,0.00,,,0.00,Wunderground v.1.15,2013-01-25 06:30:00,
2013-01-25 00:35:00,20.4,7.2,28.16,ESE,113,3.0,-999.0,56,0.00,,,0.00,Wunderground v.1.15,2013-01-25 06:35:00,
2013-01-25 00:40:00,20.4,7.2,28.16,ESE,113,3.0,-999.0,56,0.00,,,0.00,Wunderground v.1.15,2013-01-25 06:40:00,
2013-01-25 00:45:00,20.6,7.0,28.16,ESE,113,3.0,-999.0,55,0.00,,,0.00,Wunderground v.1.15,2013-01-25 06:45:00,
2013-01-25 00:50:00,20.6,7.0,28.16,ESE,113,3.0,-999.0,55,0.00,,,0.00,Wunderground v.1.15,2013-01-25 06:50:00,
2013-01-25 00:55:00,20.6,7.0,28.16,ESE,113,3.0,-999.0,55,0.00,,,0.00,Wunderground v.1.15,2013-01-25 06:55:00,
2013-01-25 01:00:00,20.6,7.0,28.16,ESE,113,3.0,-999.0,55,0.00,,,0.00,Wunderground v.1.15,2013-01-25 07:00:00,
2013-01-25 01:05:00,20.6,7.0,28.16,ESE,113,3.0,-999.0,55,0.00,,,0.00,Wunderground v.1.15,2013-01-25 07:05:00,
2013-01-25 01:10:00,20.6,7.0,28.16,ESE,113,3.0,-999.0,55,0.00,,,0.00,Wunderground v.1.15,2013-01-25 07:10:00,
2013-01-25 01:15:00,20.7,7.1,28.16,ESE,113,3.0,-999.0,55,0.00,,,0.00,Wunderground v.1.15,2013-01-25 07:15:00,
2013-01-25 01:20:00,20.7,7.1,28.16,ESE,113,3.0,-999.0,55,0.00,,,0.00,Wunderground v.1.15,2013-01-25 07:20:00,
2013-01-25 01:25:00,20.7,7.1,28.16,ESE,113,3.0,-999.0,55,0.00,,,0.00,Wunderground v.1.15,2013-01-25 07:25:00,
2013-01-25 01:30:00,20.7,7.1,28.16,ESE,113,3.0,-999.0,55,0.00,,,0.00,Wunderground v.1.15,2013-01-25 07:30:00,
2013-01-25 01:35:00,20.7,7.1,28.16,ESE,113,3.0,-999.0,55,0.00,,,0.00,Wunderground v.1.15,2013-01-25 07:35:00,
2013-01-25 01:40:00,20.7,7.1,28.16,ESE,113,3.0,-999.0,55,0.00,,,0.00,Wunderground v.1.15,2013-01-25 07:40:00,
2013-01-25 01:45:00,20.9,7.2,28.16,ESE,113,3.0,-999.0,55,0.00,,,0.00,Wunderground v.1.15,2013-01-25 07:45:00,
2013-01-25 01:50:00,20.9,7.2,28.16,ESE,113,3.0,-999.0,55,0.00,,,0.00,Wunderground v.1.15,2013-01-25 07:50:00,
2013-01-25 01:55:00,20.9,7.2,28.16,ESE,113,3.0,-999.0,55,0.00,,,0.00,Wunderground v.1.15,2013-01-25 07:55:00,
2013-01-25 02:00:00,20.9,7.2,28.16,ESE,113,3.0,-999.0,55,0.00,,,0.00,Wunderground v.1.15,2013-01-25 08:00:00,
2013-01-25 02:05:00,20.9,7.2,28.16,ESE,113,3.0,-999.0,55,0.00,,,0.00,Wunderground v.1.15,2013-01-25 08:05:00,
2013-01-25 02:10:00,20.9,7.2,28.16,ESE,113,3.0,-999.0,55,0.00,,,0.00,Wunderground v.1.15,2013-01-25 08:10:00,
2013-01-25 02:15:00,21.1,7.4,28.16,SE,135,3.0,-999.0,55,0.00,,,0.00,Wunderground v.1.15,2013-01-25 08:15:00,
2013-01-25 02:20:00,21.1,7.4,28.16,SE,135,3.0,-999.0,55,0.00,,,0.00,Wunderground v.1.15,2013-01-25 08:20:00,
2013-01-25 02:25:00,21.1,7.4,28.16,SE,135,3.0,-999.0,55,0.00,,,0.00,Wunderground v.1.15,2013-01-25 08:25:00,
2013-01-25 02:30:00,21.1,7.4,28.16,SE,135,3.0,-999.0,55,0.00,,,0.00,Wunderground v.1.15,2013-01-25 08:30:00,
2013-01-25 02:35:00,21.1,7.4,28.16,SE,135,3.0,-999.0,55,0.00,,,0.00,Wunderground v.1.15,2013-01-25 08:35:00,
2013-01-25 02:40:00,21.1,7.4,28.16,SE,135,3.0,-999.0,55,0.00,,,0.00,Wunderground v.1.15,2013-01-25 08:40:00,
2013-01-25 02:45:00,21.2,7.5,28.16,SE,135,3.0,-999.0,55,0.00,,,0.00,Wunderground v.1.15,2013-01-25 08:45:00,
2013-01-25 02:50:00,21.2,7.5,28.16,SE,135,3.0,-999.0,55,0.00,,,0.00,Wunderground v.1.15,2013-01-25 08:50:00,
2013-01-25 02:55:00,21.2,7.5,28.16,SE,135,3.0,-999.0,55,0.00,,,0.00,Wunderground v.1.15,2013-01-25 08:55:00,
2013-01-25 03:00:00,21.2,7.5,28.16,SE,135,3.0,-999.0,55,0.00,,,0.00,Wunderground v.1.15,2013-01-25 09:00:00,
2013-01-25 03:05:00,21.2,7.5,28.16,SE,135,3.0,-999.0,55,0.00,,,0.00,Wunderground v.1.15,2013-01-25 09:05:00,
2013-01-25 03:10:00,21.2,7.5,28.16,SE,135,3.0,-999.0,55,0.00,,,0.00,Wunderground v.1.15,2013-01-25 09:10:00,
2013-01-25 03:15:00,21.3,7.6,28.16,SE,135,3.0,-999.0,55,0.00,,,0.00,Wunderground v.1.15,2013-01-25 09:15:00,
2013-01-25 03:20:00,21.3,7.6,28.16,SE,135,3.0,-999.0,55,0.00,,,0.00,Wunderground v.1.15,2013-01-25 09:20:00,
2013-01-25 03:25:00,21.3,7.6,28.16,SE,135,3.0,-999.0,55,0.00,,,0.00,Wunderground v.1.15,2013-01-25 09:25:00,
2013-01-25 03:30:00,21.3,7.6,28.16,SE,135,3.0,-999.0,55,0.00,,,0.00,Wunderground v.1.15,2013-01-25 09:30:00,
2013-01-25 03:35:00,21.3,7.6,28.16,SE,135,3.0,-999.0,55,0.00,,,0.00,Wunderground v.1.15,2013-01-25 09:35:00,
2013-01-25 03:40:00,21.3,7.6,28.16,SE,135,3.0,-999.0,55,0.00,,,0.00,Wunderground v.1.15,2013-01-25 09:40:00,
2013-01-25 03:45:00,20.2,10.6,28.16,SE,135,2.0,-999.0,66,0.00,,,0.00,Wunderground v.1.15,2013-01-25 09:45:00,
2013-01-25 03:50:00,20.2,10.6,28.16,SE,135,2.0,-999.0,66,0.00,,,0.00,Wunderground v.1.15,2013-01-25 09:50:00,
2013-01-25 03:55:00,20.2,10.6,28.16,SE,135,2.0,-999.0,66,0.00,,,0.00,Wunderground v.1.15,2013-01-25 09:55:00,
2013-01-25 04:00:00,20.2,10.6,28.16,SE,135,2.0,-999.0,66,0.00,,,0.00,Wunderground v.1.15,2013-01-25 10:00:00,
2013-01-25 04:05:00,20.2,10.6,28.16,SE,135,2.0,-999.0,66,0.00,,,0.00,Wunderground v.1.15,2013-01-25 10:05:00,
2013-01-25 04:10:00,20.2,10.6,28.16,SE,135,2.0,-999.0,66,0.00,,,0.00,Wunderground v.1.15,2013-01-25 10:10:00,
2013-01-25 04:15:00,19.2,12.6,28.16,SE,135,2.0,-999.0,75,0.00,,,0.00,Wunderground v.1.15,2013-01-25 10:15:00,
2013-01-25 04:20:00,19.2,12.6,28.16,SE,135,2.0,-999.0,75,0.00,,,0.00,Wunderground v.1.15,2013-01-25 10:20:00,
2013-01-25 04:25:00,19.2,12.6,28.16,SE,135,2.0,-999.0,75,0.00,,,0.00,Wunderground v.1.15,2013-01-25 10:25:00,
2013-01-25 04:30:00,19.2,12.6,28.16,SE,135,2.0,-999.0,75,0.00,,,0.00,Wunderground v.1.15,2013-01-25 10:30:00,
2013-01-25 04:35:00,19.2,12.6,28.16,SE,135,2.0,-999.0,75,0.00,,,0.00,Wunderground v.1.15,2013-01-25 10:35:00,
2013-01-25 04:40:00,19.2,12.6,28.16,SE,135,2.0,-999.0,75,0.00,,,0.00,Wunderground v.1.15,2013-01-25 10:40:00,
2013-01-25 04:45:00,18.4,13.8,28.16,SE,135,2.0,-999.0,82,0.00,,,0.00,Wunderground v.1.15,2013-01-25 10:45:00,
2013-01-25 04:50:00,18.4,13.8,28.16,SE,135,2.0,-999.0,82,0.00,,,0.00,Wunderground v.1.15,2013-01-25 10:50:00,
2013-01-25 04:55:00,18.4,13.8,28.16,SE,135,2.0,-999.0,82,0.00,,,0.00,Wunderground v.1.15,2013-01-25 10:55:00,
2013-01-25 05:00:00,18.4,13.8,28.16,SE,135,2.0,-999.0,82,0.00,,,0.00,Wunderground v.1.15,2013-01-25 11:00:00,
2013-01-25 05:05:00,18.4,13.8,28.16,SE,135,2.0,-999.0,82,0.00,,,0.00,Wunderground v.1.15,2013-01-25 11:05:00,
2013-01-25 05:10:00,18.4,13.8,28.16,SE,135,2.0,-999.0,82,0.00,,,0.00,Wunderground v.1.15,2013-01-25 11:10:00,
2013-01-25 05:15:00,18.3,14.3,28.16,SE,135,4.0,-999.0,84,0.00,,,0.00,Wunderground v.1.15,2013-01-25 11:15:00,
2013-01-25 05:20:00,18.3,14.3,28.16,SE,135,4.0,-999.0,84,0.00,,,0.00,Wunderground v.1.15,2013-01-25 11:20:00,
2013-01-25 05:25:00,18.3,14.3,28.16,SE,135,4.0,-999.0,84,0.00,,,0.00,Wunderground v.1.15,2013-01-25 11:25:00,
2013-01-25 05:30:00,18.3,14.3,28.16,SE,135,4.0,-999.0,84,0.00,,,0.00,Wunderground v.1.15,2013-01-25 11:30:00,
2013-01-25 05:35:00,18.3,14.3,28.16,SE,135,4.0,-999.0,84,0.00,,,0.00,Wunderground v.1.15,2013-01-25 11:35:00,
2013-01-25 05:40:00,18.3,14.3,28.16,SE,135,4.0,-999.0,84,0.00,,,0.00,Wunderground v.1.15,2013-01-25 11:40:00,
2013-01-25 05:45:00,18.5,14.7,28.16,SSE,158,3.0,-999.0,85,0.00,,,0.00,Wunderground v.1.15,2013-01-25 11:45:00,
2013-01-25 05:50:00,18.5,14.7,28.16,SSE,158,3.0,-999.0,85,0.00,,,0.00,Wunderground v.1.15,2013-01-25 11:50:00,
2013-01-25 05:55:00,18.5,14.7,28.16,SSE,158,3.0,-999.0,85,0.00,,,0.00,Wunderground v.1.15,2013-01-25 11:55:00,
2013-01-25 06:00:00,18.5,14.7,28.16,SSE,158,3.0,-999.0,85,0.00,,,0.00,Wunderground v.1.15,2013-01-25 12:00:00,
2013-01-25 06:05:00,18.5,14.7,28.16,SSE,158,3.0,-999.0,85,0.00,,,0.00,Wunderground v.1.15,2013-01-25 12:05:00,
2013-01-25 06:10:00,18.5,14.7,28.16,SSE,158,3.0,-999.0,85,0.00,,,0.00,Wunderground v.1.15,2013-01-25 12:10:00,
2013-01-25 06:15:00,18.6,14.3,28.16,SSE,158,3.0,-999.0,83,0.00,,,0.00,Wunderground v.1.15,2013-01-25 12:15:00,
2013-01-25 06:20:00,18.6,14.3,28.16,SSE,158,3.0,-999.0,83,0.00,,,0.00,Wunderground v.1.15,2013-01-25 12:20:00,
2013-01-25 06:25:00,18.6,14.3,28.16,SSE,158,3.0,-999.0,83,0.00,,,0.00,Wunderground v.1.15,2013-01-25 12:25:00,
2013-01-25 06:30:00,18.6,14.3,28.16,SSE,158,3.0,-999.0,83,0.00,,,0.00,Wunderground v.1.15,2013-01-25 12:30:00,
2013-01-25 06:35:00,18.6,14.3,28.16,SSE,158,3.0,-999.0,83,0.00,,,0.00,Wunderground v.1.15,2013-01-25 12:35:00,
2013-01-25 06:40:00,18.6,14.3,28.16,SSE,158,3.0,-999.0,83,0.00,,,0.00,Wunderground v.1.15,2013-01-25 12:40:00,
2013-01-25 06:45:00,18.6,14.3,28.16,South,180,2.0,-999.0,83,0.00,,,0.00,Wunderground v.1.15,2013-01-25 12:45:00,
2013-01-25 06:50:00,18.6,14.3,28.16,South,180,2.0,-999.0,83,0.00,,,0.00,Wunderground v.1.15,2013-01-25 12:50:00,
2013-01-25 06:55:00,18.6,14.3,28.16,South,180,2.0,-999.0,83,0.00,,,0.00,Wunderground v.1.15,2013-01-25 12:55:00,
2013-01-25 07:00:00,18.6,14.3,28.16,South,180,2.0,-999.0,83,0.00,,,0.00,Wunderground v.1.15,2013-01-25 13:00:00,
2013-01-25 07:05:00,18.6,14.3,28.16,South,180,2.0,-999.0,83,0.00,,,0.00,Wunderground v.1.15,2013-01-25 13:05:00,
2013-01-25 07:10:00,18.6,14.3,28.16,South,180,2.0,-999.0,83,0.00,,,0.00,Wunderground v.1.15,2013-01-25 13:10:00,
2013-01-25 07:15:00,18.7,14.7,28.16,South,180,3.0,-999.0,84,0.00,,,0.00,Wunderground v.1.15,2013-01-25 13:15:00,
2013-01-25 07:20:00,18.7,14.7,28.16,South,180,3.0,-999.0,84,0.00,,,0.00,Wunderground v.1.15,2013-01-25 13:20:00,
2013-01-25 07:25:00,18.7,14.7,28.16,South,180,3.0,-999.0,84,0.00,,,0.00,Wunderground v.1.15,2013-01-25 13:25:00,
2013-01-25 07:30:00,18.7,14.7,28.16,South,180,3.0,-999.0,84,0.00,,,0.00,Wunderground v.1.15,2013-01-25 13:30:00,
2013-01-25 07:35:00,18.7,14.7,28.16,South,180,3.0,-999.0,84,0.00,,,0.00,Wunderground v.1.15,2013-01-25 13:35:00,
2013-01-25 07:40:00,18.7,14.7,28.16,South,180,3.0,-999.0,84,0.00,,,0.00,Wunderground v.1.15,2013-01-25 13:40:00,
2013-01-25 07:45:00,18.8,14.8,28.16,South,180,3.0,-999.0,84,0.00,,,0.00,Wunderground v.1.15,2013-01-25 13:45:00,
2013-01-25 07:50:00,18.8,14.8,28.16,South,180,3.0,-999.0,84,0.00,,,0.00,Wunderground v.1.15,2013-01-25 13:50:00,
2013-01-25 07:55:00,18.8,14.8,28.16,South,180,3.0,-999.0,84,0.00,,,0.00,Wunderground v.1.15,2013-01-25 13:55:00,
2013-01-25 08:00:00,18.8,14.8,28.16,South,180,3.0,-999.0,84,0.00,,,0.00,Wunderground v.1.15,2013-01-25 14:00:00,
2013-01-25 08:05:00,18.8,14.8,28.16,South,180,3.0,-999.0,84,0.00,,,0.00,Wunderground v.1.15,2013-01-25 14:05:00,
2013-01-25 08:10:00,18.8,14.8,28.16,South,180,3.0,-999.0,84,0.00,,,0.00,Wunderground v.1.15,2013-01-25 14:10:00,
2013-01-25 08:15:00,19.5,15.5,28.16,SSE,158,3.0,-999.0,84,0.00,,,0.00,Wunderground v.1.15,2013-01-25 14:15:00,
2013-01-25 08:20:00,19.5,15.5,28.16,SSE,158,3.0,-999.0,84,0.00,,,0.00,Wunderground v.1.15,2013-01-25 14:20:00,
2013-01-25 08:25:00,19.5,15.5,28.16,SSE,158,3.0,-999.0,84,0.00,,,0.00,Wunderground v.1.15,2013-01-25 14:25:00,
2013-01-25 08:30:00,19.5,15.5,28.16,SSE,158,3.0,-999.0,84,0.00,,,0.00,Wunderground v.1.15,2013-01-25 14:30:00,
2013-01-25 08:35:00,19.5,15.5,28.16,SSE,158,3.0,-999.0,84,0.00,,,0.00,Wunderground v.1.15,2013-01-25 14:35:00,
2013-01-25 08:40:00,19.5,15.5,28.16,SSE,158,3.0,-999.0,84,0.00,,,0.00,Wunderground v.1.15,2013-01-25 14:40:00,
2013-01-25 08:45:00,20.4,15.8,28.16,SSE,158,4.0,-999.0,82,0.00,,,0.00,Wunderground v.1.15,2013-01-25 14:45:00,
2013-01-25 08:50:00,20.4,15.8,28.16,SSE,158,4.0,-999.0,82,0.00,,,0.00,Wunderground v.1.15,2013-01-25 14:50:00,
2013-01-25 08:55:00,20.4,15.8,28.16,SSE,158,4.0,-999.0,82,0.00,,,0.00,Wunderground v.1.15,2013-01-25 14:55:00,
2013-01-25 09:00:00,20.4,15.8,28.16,SSE,158,4.0,-999.0,82,0.00,,,0.00,Wunderground v.1.15,2013-01-25 15:00:00,
2013-01-25 09:05:00,20.4,15.8,28.16,SSE,158,4.0,-999.0,82,0.00,,,0.00,Wunderground v.1.15,2013-01-25 15:05:00,
2013-01-25 09:10:00,20.4,15.8,28.16,SSE,158,4.0,-999.0,82,0.00,,,0.00,Wunderground v.1.15,2013-01-25 15:10:00,
2013-01-25 09:15:00,21.5,15.7,28.16,South,180,3.0,-999.0,78,0.00,,,0.00,Wunderground v.1.15,2013-01-25 15:15:00,
2013-01-25 09:20:00,21.5,15.7,28.16,South,180,3.0,-999.0,78,0.00,,,0.00,Wunderground v.1.15,2013-01-25 15:20:00,
2013-01-25 09:25:00,21.5,15.7,28.16,South,180,3.0,-999.0,78,0.00,,,0.00,Wunderground v.1.15,2013-01-25 15:25:00,
2013-01-25 09:30:00,21.5,15.7,28.16,South,180,3.0,-999.0,78,0.00,,,0.00,Wunderground v.1.15,2013-01-25 15:30:00,
2013-01-25 09:35:00,21.5,15.7,28.16,South,180,3.0,-999.0,78,0.00,,,0.00,Wunderground v.1.15,2013-01-25 15:35:00,
2013-01-25 09:40:00,21.5,15.7,28.16,South,180,3.0,-999.0,78,0.00,,,0.00,Wunderground v.1.15,2013-01-25 15:40:00,
2013-01-25 09:45:00,23.2,16.4,28.16,South,180,5.0,-999.0,75,0.00,,,0.00,Wunderground v.1.15,2013-01-25 15:45:00,
2013-01-25 09:50:00,23.2,16.4,28.16,South,180,5.0,-999.0,75,0.00,,,0.00,Wunderground v.1.15,2013-01-25 15:50:00,
2013-01-25 09:55:00,23.2,16.4,28.16,South,180,5.0,-999.0,75,0.00,,,0.00,Wunderground v.1.15,2013-01-25 15:55:00,
2013-01-25 10:00:00,23.2,16.4,28.16,South,180,5.0,-999.0,75,0.00,,,0.00,Wunderground v.1.15,2013-01-25 16:00:00,
2013-01-25 10:05:00,23.2,16.4,28.16,South,180,5.0,-999.0,75,0.00,,,0.00,Wunderground v.1.15,2013-01-25 16:05:00,
2013-01-25 10:10:00,23.2,16.4,28.16,South,180,5.0,-999.0,75,0.00,,,0.00,Wunderground v.1.15,2013-01-25 16:10:00,
2013-01-25 10:15:00,24.4,17.0,28.16,SW,225,4.0,-999.0,73,0.00,,,0.00,Wunderground v.1.15,2013-01-25 16:15:00,
2013-01-25 10:20:00,24.4,17.0,28.16,SW,225,4.0,-999.0,73,0.00,,,0.00,Wunderground v.1.15,2013-01-25 16:20:00,
2013-01-25 10:25:00,24.4,17.0,28.16,SW,225,4.0,-999.0,73,0.00,,,0.00,Wunderground v.1.15,2013-01-25 16:25:00,
2013-01-25 10:30:00,24.4,17.0,28.16,SW,225,4.0,-999.0,73,0.00,,,0.00,Wunderground v.1.15,2013-01-25 16:30:00,
2013-01-25 10:35:00,24.4,17.0,28.16,SW,225,4.0,-999.0,73,0.00,,,0.00,Wunderground v.1.15,2013-01-25 16:35:00,
2013-01-25 10:40:00,24.4,17.0,28.16,SW,225,4.0,-999.0,73,0.00,,,0.00,Wunderground v.1.15,2013-01-25 16:40:00,
2013-01-25 10:45:00,25.6,16.8,28.16,WSW,248,5.0,-999.0,69,0.00,,,0.00,Wunderground v.1.15,2013-01-25 16:45:00,
2013-01-25 10:50:00,25.6,16.8,28.16,WSW,248,5.0,-999.0,69,0.00,,,0.00,Wunderground v.1.15,2013-01-25 16:50:00,
2013-01-25 10:55:00,25.6,16.8,28.16,WSW,248,5.0,-999.0,69,0.00,,,0.00,Wunderground v.1.15,2013-01-25 16:55:00,
2013-01-25 11:00:00,25.6,16.8,28.16,WSW,248,5.0,-999.0,69,0.00,,,0.00,Wunderground v.1.15,2013-01-25 17:00:00,
2013-01-25 11:05:00,25.6,16.8,28.16,WSW,248,5.0,-999.0,69,0.00,,,0.00,Wunderground v.1.15,2013-01-25 17:05:00,
2013-01-25 11:10:00,25.6,16.8,28.16,WSW,248,5.0,-999.0,69,0.00,,,0.00,Wunderground v.1.15,2013-01-25 17:10:00,
2013-01-25 11:15:00,26.5,17.4,28.16,West,270,6.0,-999.0,68,0.00,,,0.00,Wunderground v.1.15,2013-01-25 17:15:00,
2013-01-25 11:20:00,26.5,17.4,28.16,West,270,6.0,-999.0,68,0.00,,,0.00,Wunderground v.1.15,2013-01-25 17:20:00,
2013-01-25 11:25:00,26.5,17.4,28.16,West,270,6.0,-999.0,68,0.00,,,0.00,Wunderground v.1.15,2013-01-25 17:25:00,
2013-01-25 11:30:00,26.5,17.4,28.16,West,270,6.0,-999.0,68,0.00,,,0.00,Wunderground v.1.15,2013-01-25 17:30:00,
2013-01-25 11:35:00,26.5,17.4,28.16,West,270,6.0,-999.0,68,0.00,,,0.00,Wunderground v.1.15,2013-01-25 17:35:00,
2013-01-25 11:40:00,26.5,17.4,28.16,West,270,6.0,-999.0,68,0.00,,,0.00,Wunderground v.1.15,2013-01-25 17:40:00,
2013-01-25 11:45:00,28.7,18.1,28.16,West,270,5.0,-999.0,64,0.00,,,0.00,Wunderground v.1.15,2013-01-25 17:45:00,
2013-01-25 11:50:00,28.7,18.1,28.16,West,270,5.0,-999.0,64,0.00,,,0.00,Wunderground v.1.15,2013-01-25 17:50:00,
2013-01-25 11:55:00,28.7,18.1,28.16,West,270,5.0,-999.0,64,0.00,,,0.00,Wunderground v.1.15,2013-01-25 17:55:00,
2013-01-25 12:00:00,28.7,18.1,28.16,West,270,5.0,-999.0,64,0.00,,,0.00,Wunderground v.1.15,2013-01-25 18:00:00,
2013-01-25 12:05:00,28.7,18.1,28.16,West,270,5.0,-999.0,64,0.00,,,0.00,Wunderground v.1.15,2013-01-25 18:05:00,
2013-01-25 12:10:00,28.7,18.1,28.16,West,270,5.0,-999.0,64,0.00,,,0.00,Wunderground v.1.15,2013-01-25 18:10:00,
2013-01-25 12:15:00,29.8,19.1,28.16,WSW,248,6.0,-999.0,64,0.00,,,0.00,Wunderground v.1.15,2013-01-25 18:15:00,
2013-01-25 12:20:00,29.8,19.1,28.16,WSW,248,6.0,-999.0,64,0.00,,,0.00,Wunderground v.1.15,2013-01-25 18:20:00,
2013-01-25 12:25:00,29.8,19.1,28.16,WSW,248,6.0,-999.0,64,0.00,,,0.00,Wunderground v.1.15,2013-01-25 18:25:00,
2013-01-25 12:30:00,29.8,19.1,28.16,WSW,248,6.0,-999.0,64,0.00,,,0.00,Wunderground v.1.15,2013-01-25 18:30:00,
2013-01-25 12:35:00,29.8,19.1,28.16,WSW,248,6.0,-999.0,64,0.00,,,0.00,Wunderground v.1.15,2013-01-25 18:35:00,
2013-01-25 12:40:00,29.8,19.1,28.16,WSW,248,6.0,-999.0,64,0.00,,,0.00,Wunderground v.1.15,2013-01-25 18:40:00,
2013-01-25 12:45:00,30.5,19.8,28.16,West,270,7.0,-999.0,64,0.00,,,0.00,Wunderground v.1.15,2013-01-25 18:45:00,
2013-01-25 12:50:00,30.5,19.8,28.16,West,270,7.0,-999.0,64,0.00,,,0.00,Wunderground v.1.15,2013-01-25 18:50:00,
2013-01-25 12:55:00,30.5,19.8,28.16,West,270,7.0,-999.0,64,0.00,,,0.00,Wunderground v.1.15,2013-01-25 18:55:00,
2013-01-25 13:00:00,30.5,19.8,28.16,West,270,7.0,-999.0,64,0.00,,,0.00,Wunderground v.1.15,2013-01-25 19:00:00,
2013-01-25 13:05:00,30.5,19.8,28.16,West,270,7.0,-999.0,64,0.00,,,0.00,Wunderground v.1.15,2013-01-25 19:05:00,
2013-01-25 13:10:00,30.5,19.8,28.16,West,270,7.0,-999.0,64,0.00,,,0.00,Wunderground v.1.15,2013-01-25 19:10:00,
2013-01-25 13:15:00,31.2,19.7,28.16,West,270,8.0,-999.0,62,0.00,,,0.00,Wunderground v.1.15,2013-01-25 19:15:00,
2013-01-25 13:20:00,31.2,19.7,28.16,West,270,8.0,-999.0,62,0.00,,,0.00,Wunderground v.1.15,2013-01-25 19:20:00,
2013-01-25 13:25:00,31.2,19.7,28.16,West,270,8.0,-999.0,62,0.00,,,0.00,Wunderground v.1.15,2013-01-25 19:25:00,
2013-01-25 13:30:00,31.2,19.7,28.16,West,270,8.0,-999.0,62,0.00,,,0.00,Wunderground v.1.15,2013-01-25 19:30:00,
2013-01-25 13:35:00,31.2,19.7,28.16,West,270,8.0,-999.0,62,0.00,,,0.00,Wunderground v.1.15,2013-01-25 19:35:00,
2013-01-25 13:40:00,31.2,19.7,28.16,West,270,8.0,-999.0,62,0.00,,,0.00,Wunderground v.1.15,2013-01-25 19:40:00,
2013-01-25 13:45:00,32.0,19.3,28.16,WSW,248,7.0,-999.0,59,0.00,,,0.00,Wunderground v.1.15,2013-01-25 19:45:00,
2013-01-25 13:50:00,32.0,19.3,28.16,WSW,248,7.0,-999.0,59,0.00,,,0.00,Wunderground v.1.15,2013-01-25 19:50:00,
2013-01-25 13:55:00,32.0,19.3,28.16,WSW,248,7.0,-999.0,59,0.00,,,0.00,Wunderground v.1.15,2013-01-25 19:55:00,
2013-01-25 14:00:00,32.0,19.3,28.16,WSW,248,7.0,-999.0,59,0.00,,,0.00,Wunderground v.1.15,2013-01-25 20:00:00,
2013-01-25 14:05:00,32.0,19.3,28.16,WSW,248,7.0,-999.0,59,0.00,,,0.00,Wunderground v.1.15,2013-01-25 20:05:00,
2013-01-25 14:10:00,32.0,19.3,28.16,WSW,248,7.0,-999.0,59,0.00,,,0.00,Wunderground v.1.15,2013-01-25 20:10:00,
2013-01-25 14:15:00,32.9,19.7,28.16,WSW,248,7.0,-999.0,58,0.00,,,0.00,Wunderground v.1.15,2013-01-25 20:15:00,
2013-01-25 14:20:00,32.9,19.7,28.16,WSW,248,7.0,-999.0,58,0.00,,,0.00,Wunderground v.1.15,2013-01-25 20:20:00,
2013-01-25 14:25:00,32.9,19.7,28.16,WSW,248,7.0,-999.0,58,0.00,,,0.00,Wunderground v.1.15,2013-01-25 20:25:00,
2013-01-25 14:30:00,32.9,19.7,28.16,WSW,248,7.0,-999.0,58,0.00,,,0.00,Wunderground v.1.15,2013-01-25 20:30:00,
2013-01-25 14:35:00,32.9,19.7,28.16,WSW,248,7.0,-999.0,58,0.00,,,0.00,Wunderground v.1.15,2013-01-25 20:35:00,
2013-01-25 14:40:00,32.9,19.7,28.16,WSW,248,7.0,-999.0,58,0.00,,,0.00,Wunderground v.1.15,2013-01-25 20:40:00,
2013-01-25 14:45:00,33.4,19.8,28.16,West,270,8.0,-999.0,57,0.00,,,0.00,Wunderground v.1.15,2013-01-25 20:45:00,
2013-01-25 14:50:00,33.4,19.8,28.16,West,270,8.0,-999.0,57,0.00,,,0.00,Wunderground v.1.15,2013-01-25 20:50:00,
2013-01-25 14:55:00,33.4,19.8,28.16,West,270,8.0,-999.0,57,0.00,,,0.00,Wunderground v.1.15,2013-01-25 20:55:00,
2013-01-25 15:00:00,33.4,19.8,28.16,West,270,8.0,-999.0,57,0.00,,,0.00,Wunderground v.1.15,2013-01-25 21:00:00,
2013-01-25 15:05:00,33.4,19.8,28.16,West,270,8.0,-999.0,57,0.00,,,0.00,Wunderground v.1.15,2013-01-25 21:05:00,
2013-01-25 15:10:00,33.4,19.8,28.16,West,270,8.0,-999.0,57,0.00,,,0.00,Wunderground v.1.15,2013-01-25 21:10:00,
2013-01-25 15:15:00,34.4,20.3,32.37,WSW,248,7.0,-999.0,56,0.00,,,0.00,Wunderground v.1.15,2013-01-25 21:15:00,
2013-01-25 15:20:00,34.4,20.3,32.37,WSW,248,7.0,-999.0,56,0.00,,,0.00,Wunderground v.1.15,2013-01-25 21:20:00,
2013-01-25 15:25:00,34.4,20.3,32.37,WSW,248,7.0,-999.0,56,0.00,,,0.00,Wunderground v.1.15,2013-01-25 21:25:00,
2013-01-25 15:30:00,34.4,20.3,32.37,WSW,248,7.0,-999.0,56,0.00,,,0.00,Wunderground v.1.15,2013-01-25 21:30:00,
2013-01-25 15:35:00,34.4,20.3,32.37,WSW,248,7.0,-999.0,56,0.00,,,0.00,Wunderground v.1.15,2013-01-25 21:35:00,
2013-01-25 15:40:00,34.4,20.3,32.37,WSW,248,7.0,-999.0,56,0.00,,,0.00,Wunderground v.1.15,2013-01-25 21:40:00,
2013-01-25 15:45:00,34.4,19.9,32.37,West,270,7.0,-999.0,55,0.00,,,0.00,Wunderground v.1.15,2013-01-25 21:45:00,
2013-01-25 15:50:00,34.4,19.9,32.37,West,270,7.0,-999.0,55,0.00,,,0.00,Wunderground v.1.15,2013-01-25 21:50:00,
2013-01-25 15:55:00,34.4,19.9,32.37,West,270,7.0,-999.0,55,0.00,,,0.00,Wunderground v.1.15,2013-01-25 21:55:00,
2013-01-25 16:00:00,34.4,19.9,32.37,West,270,7.0,-999.0,55,0.00,,,0.00,Wunderground v.1.15,2013-01-25 22:00:00,
2013-01-25 16:05:00,34.4,19.9,32.37,West,270,7.0,-999.0,55,0.00,,,0.00,Wunderground v.1.15,2013-01-25 22:05:00,
2013-01-25 16:10:00,34.4,19.9,32.37,West,270,7.0,-999.0,55,0.00,,,0.00,Wunderground v.1.15,2013-01-25 22:10:00,
2013-01-25 16:15:00,34.1,20.0,32.37,West,270,8.0,-999.0,56,0.00,,,0.00,Wunderground v.1.15,2013-01-25 22:15:00,
2013-01-25 16:20:00,34.1,20.0,32.37,West,270,8.0,-999.0,56,0.00,,,0.00,Wunderground v.1.15,2013-01-25 22:20:00,
2013-01-25 16:25:00,34.1,20.0,32.37,West,270,8.0,-999.0,56,0.00,,,0.00,Wunderground v.1.15,2013-01-25 22:25:00,
2013-01-25 16:30:00,34.1,20.0,32.37,West,270,8.0,-999.0,56,0.00,,,0.00,Wunderground v.1.15,2013-01-25 22:30:00,
2013-01-25 16:35:00,34.1,20.0,32.37,West,270,8.0,-999.0,56,0.00,,,0.00,Wunderground v.1.15,2013-01-25 22:35:00,
2013-01-25 16:40:00,34.1,20.0,32.37,West,270,8.0,-999.0,56,0.00,,,0.00,Wunderground v.1.15,2013-01-25 22:40:00,
2013-01-25 16:45:00,32.8,20.0,32.37,West,270,7.0,-999.0,59,0.00,,,0.00,Wunderground v.1.15,2013-01-25 22:45:00,
2013-01-25 16:50:00,32.8,20.0,32.37,West,270,7.0,-999.0,59,0.00,,,0.00,Wunderground v.1.15,2013-01-25 22:50:00,
2013-01-25 16:55:00,32.8,20.0,32.37,West,270,7.0,-999.0,59,0.00,,,0.00,Wunderground v.1.15,2013-01-25 22:55:00,
2013-01-25 17:00:00,32.8,20.0,32.37,West,270,7.0,-999.0,59,0.00,,,0.00,Wunderground v.1.15,2013-01-25 23:00:00,
2013-01-25 17:05:00,32.8,20.0,32.37,West,270,7.0,-999.0,59,0.00,,,0.00,Wunderground v.1.15,2013-01-25 23:05:00,
2013-01-25 17:10:00,32.8,20.0,32.37,West,270,7.0,-999.0,59,0.00,,,0.00,Wunderground v.1.15,2013-01-25 23:10:00,
2013-01-25 17:15:00,31.9,19.6,32.37,West,270,5.0,-999.0,60,0.00,,,0.00,Wunderground v.1.15,2013-01-25 23:15:00,
2013-01-25 17:20:00,31.9,19.6,32.37,West,270,5.0,-999.0,60,0.00,,,0.00,Wunderground v.1.15,2013-01-25 23:20:00,
2013-01-25 17:25:00,31.9,19.6,32.37,West,270,5.0,-999.0,60,0.00,,,0.00,Wunderground v.1.15,2013-01-25 23:25:00,
2013-01-25 17:30:00,31.9,19.6,32.37,West,270,5.0,-999.0,60,0.00,,,0.00,Wunderground v.1.15,2013-01-25 23:30:00,
2013-01-25 17:35:00,31.9,19.6,32.37,West,270,5.0,-999.0,60,0.00,,,0.00,Wunderground v.1.15,2013-01-25 23:35:00,
2013-01-25 17:40:00,31.9,19.6,32.37,West,270,5.0,-999.0,60,0.00,,,0.00,Wunderground v.1.15,2013-01-25 23:40:00,
2013-01-25 17:45:00,30.6,19.5,32.37,WSW,248,3.0,-999.0,63,0.00,,,0.00,Wunderground v.1.15,2013-01-25 23:45:00,
2013-01-25 17:50:00,30.6,19.5,32.37,WSW,248,3.0,-999.0,63,0.00,,,0.00,Wunderground v.1.15,2013-01-25 23:50:00,
2013-01-25 17:55:00,30.6,19.5,32.37,WSW,248,3.0,-999.0,63,0.00,,,0.00,Wunderground v.1.15,2013-01-25 23:55:00,
2013-01-25 18:00:00,30.6,19.5,32.37,WSW,248,3.0,-999.0,63,0.00,,,0.00,Wunderground v.1.15,2013-01-26 00:00:00,
2013-01-25 18:05:00,30.6,19.5,32.37,WSW,248,3.0,-999.0,63,0.00,,,0.00,Wunderground v.1.15,2013-01-26 00:05:00,
2013-01-25 18:10:00,30.6,19.5,32.37,WSW,248,3.0,-999.0,63,0.00,,,0.00,Wunderground v.1.15,2013-01-26 00:10:00,
2013-01-25 18:15:00,29.7,19.0,32.37,WSW,248,2.0,-999.0,64,0.00,,,0.00,Wunderground v.1.15,2013-01-26 00:15:00,
2013-01-25 18:20:00,29.7,19.0,32.37,WSW,248,2.0,-999.0,64,0.00,,,0.00,Wunderground v.1.15,2013-01-26 00:20:00,
2013-01-25 18:25:00,29.7,19.0,32.37,WSW,248,2.0,-999.0,64,0.00,,,0.00,Wunderground v.1.15,2013-01-26 00:25:00,
2013-01-25 18:30:00,29.7,19.0,32.37,WSW,248,2.0,-999.0,64,0.00,,,0.00,Wunderground v.1.15,2013-01-26 00:30:00,
2013-01-25 18:35:00,29.7,19.0,32.37,WSW,248,2.0,-999.0,64,0.00,,,0.00,Wunderground v.1.15,2013-01-26 00:35:00,
2013-01-25 18:40:00,29.7,19.0,32.37,WSW,248,2.0,-999.0,64,0.00,,,0.00,Wunderground v.1.15,2013-01-26 00:40:00,
2013-01-25 18:45:00,28.1,18.9,32.37,WSW,248,1.0,-999.0,68,0.00,,,0.00,Wunderground v.1.15,2013-01-26 00:45:00,
2013-01-25 18:50:00,28.1,18.9,32.37,WSW,248,1.0,-999.0,68,0.00,,,0.00,Wunderground v.1.15,2013-01-26 00:50:00,
2013-01-25 18:55:00,28.1,18.9,32.37,WSW,248,1.0,-999.0,68,0.00,,,0.00,Wunderground v.1.15,2013-01-26 00:55:00,
2013-01-25 19:00:00,28.1,18.9,32.37,WSW,248,1.0,-999.0,68,0.00,,,0.00,Wunderground v.1.15,2013-01-26 01:00:00,
2013-01-25 19:05:00,28.1,18.9,32.37,WSW,248,1.0,-999.0,68,0.00,,,0.00,Wunderground v.1.15,2013-01-26 01:05:00,
2013-01-25 19:10:00,28.1,18.9,32.37,WSW,248,1.0,-999.0,68,0.00,,,0.00,Wunderground v.1.15,2013-01-26 01:10:00,
2013-01-25 19:15:00,30.5,19.8,32.37,WNW,293,4.0,-999.0,64,0.00,,,0.00,Wunderground v.1.15,2013-01-26 01:15:00,
2013-01-25 19:20:00,30.5,19.8,32.37,WNW,293,4.0,-999.0,64,0.00,,,0.00,Wunderground v.1.15,2013-01-26 01:20:00,
2013-01-25 19:25:00,30.5,19.8,32.37,WNW,293,4.0,-999.0,64,0.00,,,0.00,Wunderground v.1.15,2013-01-26 01:25:00,
2013-01-25 19:30:00,30.5,19.8,32.37,WNW,293,4.0,-999.0,64,0.00,,,0.00,Wunderground v.1.15,2013-01-26 01:30:00,
2013-01-25 19:35:00,30.5,19.8,32.37,WNW,293,4.0,-999.0,64,0.00,,,0.00,Wunderground v.1.15,2013-01-26 01:35:00,
2013-01-25 19:40:00,30.5,19.8,32.37,WNW,293,4.0,-999.0,64,0.00,,,0.00,Wunderground v.1.15,2013-01-26 01:40:00,
2013-01-25 19:45:00,29.9,19.6,32.37,NW,315,3.0,-999.0,65,0.00,,,0.00,Wunderground v.1.15,2013-01-26 01:45:00,
2013-01-25 19:50:00,29.9,19.6,32.37,NW,315,3.0,-999.0,65,0.00,,,0.00,Wunderground v.1.15,2013-01-26 01:50:00,
2013-01-25 19:55:00,29.9,19.6,32.37,NW,315,3.0,-999.0,65,0.00,,,0.00,Wunderground v.1.15,2013-01-26 01:55:00,
2013-01-25 20:00:00,29.9,19.6,32.37,NW,315,3.0,-999.0,65,0.00,,,0.00,Wunderground v.1.15,2013-01-26 02:00:00,
2013-01-25 20:05:00,29.9,19.6,32.37,NW,315,3.0,-999.0,65,0.00,,,0.00,Wunderground v.1.15,2013-01-26 02:05:00,
2013-01-25 20:10:00,29.9,19.6,32.37,NW,315,3.0,-999.0,65,0.00,,,0.00,Wunderground v.1.15,2013-01-26 02:10:00,
2013-01-25 20:15:00,29.0,19.8,32.37,NW,315,3.0,-999.0,68,0.00,,,0.00,Wunderground v.1.15,2013-01-26 02:15:00,
2013-01-25 20:20:00,29.0,19.8,32.37,NW,315,3.0,-999.0,68,0.00,,,0.00,Wunderground v.1.15,2013-01-26 02:20:00,
2013-01-25 20:25:00,29.0,19.8,32.37,NW,315,3.0,-999.0,68,0.00,,,0.00,Wunderground v.1.15,2013-01-26 02:25:00,
2013-01-25 20:30:00,29.0,19.8,32.37,NW,315,3.0,-999.0,68,0.00,,,0.00,Wunderground v.1.15,2013-01-26 02:30:00,
2013-01-25 20:35:00,29.0,19.8,32.37,NW,315,3.0,-999.0,68,0.00,,,0.00,Wunderground v.1.15,2013-01-26 02:35:00,
2013-01-25 20:40:00,29.0,19.8,32.37,NW,315,3.0,-999.0,68,0.00,,,0.00,Wunderground v.1.15,2013-01-26 02:40:00,
2013-01-25 20:45:00,28.3,19.4,32.37,NW,315,2.0,-999.0,69,0.00,,,0.00,Wunderground v.1.15,2013-01-26 02:45:00,
2013-01-25 20:50:00,28.3,19.4,32.37,NW,315,2.0,-999.0,69,0.00,,,0.00,Wunderground v.1.15,2013-01-26 02:50:00,
2013-01-25 20:55:00,28.3,19.4,32.37,NW,315,2.0,-999.0,69,0.00,,,0.00,Wunderground v.1.15,2013-01-26 02:55:00,
2013-01-25 21:00:00,28.3,19.4,32.37,NW,315,2.0,-999.0,69,0.00,,,0.00,Wunderground v.1.15,2013-01-26 03:00:00,
2013-01-25 21:05:00,28.3,19.4,32.37,NW,315,2.0,-999.0,69,0.00,,,0.00,Wunderground v.1.15,2013-01-26 03:05:00,
2013-01-25 21:10:00,28.3,19.4,32.37,NW,315,2.0,-999.0,69,0.00,,,0.00,Wunderground v.1.15,2013-01-26 03:10:00,
2013-01-25 21:15:00,27.4,19.2,32.37,NW,315,1.0,-999.0,71,0.00,,,0.00,Wunderground v.1.15,2013-01-26 03:15:00,
2013-01-25 21:20:00,27.4,19.2,32.37,NW,315,1.0,-999.0,71,0.00,,,0.00,Wunderground v.1.15,2013-01-26 03:20:00,
2013-01-25 21:25:00,27.4,19.2,32.37,NW,315,1.0,-999.0,71,0.00,,,0.00,Wunderground v.1.15,2013-01-26 03:25:00,
2013-01-25 21:30:00,27.4,19.2,32.37,NW,315,1.0,-999.0,71,0.00,,,0.00,Wunderground v.1.15,2013-01-26 03:30:00,
2013-01-25 21:35:00,27.4,19.2,32.37,NW,315,1.0,-999.0,71,0.00,,,0.00,Wunderground v.1.15,2013-01-26 03:35:00,
2013-01-25 21:40:00,27.4,19.2,32.37,NW,315,1.0,-999.0,71,0.00,,,0.00,Wunderground v.1.15,2013-01-26 03:40:00,
2013-01-25 21:45:00,26.5,19.0,32.37,NW,315,2.0,-999.0,73,0.00,,,0.00,Wunderground v.1.15,2013-01-26 03:45:00,
2013-01-25 21:50:00,26.5,19.0,32.37,NW,315,2.0,-999.0,73,0.00,,,0.00,Wunderground v.1.15,2013-01-26 03:50:00,
2013-01-25 21:55:00,26.5,19.0,32.37,NW,315,2.0,-999.0,73,0.00,,,0.00,Wunderground v.1.15,2013-01-26 03:55:00,
2013-01-25 22:00:00,26.5,19.0,32.37,NW,315,2.0,-999.0,73,0.00,,,0.00,Wunderground v.1.15,2013-01-26 04:00:00,
2013-01-25 22:05:00,26.5,19.0,32.37,NW,315,2.0,-999.0,73,0.00,,,0.00,Wunderground v.1.15,2013-01-26 04:05:00,
2013-01-25 22:10:00,26.5,19.0,32.37,NW,315,2.0,-999.0,73,0.00,,,0.00,Wunderground v.1.15,2013-01-26 04:10:00,
2013-01-25 22:15:00,24.8,16.4,32.37,NW,315,4.0,-999.0,70,0.00,,,0.00,Wunderground v.1.15,2013-01-26 04:15:00,
2013-01-25 22:20:00,24.8,16.4,32.37,NW,315,4.0,-999.0,70,0.00,,,0.00,Wunderground v.1.15,2013-01-26 04:20:00,
2013-01-25 22:25:00,24.8,16.4,32.37,NW,315,4.0,-999.0,70,0.00,,,0.00,Wunderground v.1.15,2013-01-26 04:25:00,
2013-01-25 22:30:00,24.8,16.4,32.37,NW,315,4.0,-999.0,70,0.00,,,0.00,Wunderground v.1.15,2013-01-26 04:30:00,
2013-01-25 22:35:00,24.8,16.4,32.37,NW,315,4.0,-999.0,70,0.00,,,0.00,Wunderground v.1.15,2013-01-26 04:35:00,
2013-01-25 22:40:00,24.8,16.4,32.37,NW,315,4.0,-999.0,70,0.00,,,0.00,Wunderground v.1.15,2013-01-26 04:40:00,
2013-01-25 22:45:00,23.3,12.9,32.37,NW,315,5.0,-999.0,64,0.00,,,0.00,Wunderground v.1.15,2013-01-26 04:45:00,
2013-01-25 22:50:00,23.3,12.9,32.37,NW,315,5.0,-999.0,64,0.00,,,0.00,Wunderground v.1.15,2013-01-26 04:50:00,
2013-01-25 22:55:00,23.3,12.9,32.37,NW,315,5.0,-999.0,64,0.00,,,0.00,Wunderground v.1.15,2013-01-26 04:55:00,
2013-01-25 23:00:00,23.3,12.9,32.37,NW,315,5.0,-999.0,64,0.00,,,0.00,Wunderground v.1.15,2013-01-26 05:00:00,
2013-01-25 23:05:00,23.3,12.9,32.37,NW,315,5.0,-999.0,64,0.00,,,0.00,Wunderground v.1.15,2013-01-26 05:05:00,
2013-01-25 23:10:00,23.3,12.9,32.37,NW,315,5.0,-999.0,64,0.00,,,0.00,Wunderground v.1.15,2013-01-26 05:10:00,
2013-01-25 23:15:00,21.7,11.0,32.37,NW,315,4.0,-999.0,63,0.00,,,0.00,Wunderground v.1.15,2013-01-26 05:15:00,
2013-01-25 23:20:00,21.7,11.0,32.37,NW,315,4.0,-999.0,63,0.00,,,0.00,Wunderground v.1.15,2013-01-26 05:20:00,
2013-01-25 23:25:00,21.7,11.0,32.37,NW,315,4.0,-999.0,63,0.00,,,0.00,Wunderground v.1.15,2013-01-26 05:25:00,
2013-01-25 23:30:00,21.7,11.0,32.37,NW,315,4.0,-999.0,63,0.00,,,0.00,Wunderground v.1.15,2013-01-26 05:30:00,
2013-01-25 23:35:00,21.7,11.0,32.37,NW,315,4.0,-999.0,63,0.00,,,0.00,Wunderground v.1.15,2013-01-26 05:35:00,
2013-01-25 23:40:00,21.7,11.0,32.37,NW,315,4.0,-999.0,63,0.00,,,0.00,Wunderground v.1.15,2013-01-26 05:40:00,
2013-01-25 23:45:00,20.4,10.1,32.37,NNW,338,3.0,-999.0,64,0.00,,,0.00,Wunderground v.1.15,2013-01-26 05:45:00,
2013-01-25 23:50:00,20.4,10.1,32.37,NNW,338,3.0,-999.0,64,0.00,,,0.00,Wunderground v.1.15,2013-01-26 05:50:00,
2013-01-25 23:55:00,20.4,10.1,32.37,NNW,338,3.0,-999.0,64,0.00,,,0.00,Wunderground v.1.15,2013-01-26 05:55:00,